Regional Weather Roundup
Issued by NWS

Home | Current Version | Previous Version | Text Only | Print | Product List | Glossary Off
Versions: 1 2 3 4 5 6 7 8 9 10 11 12 13 14 15 16 17 18 19 20 21 22 23 24 25 26 27 28 29 30 31 32 33 34 35 36 37 38 39 40 41 42 43 44 45 46 47 48 49 50

000
ASUS43 KOAX 240510
RWRNE

WEATHER ROUNDUP FOR NEBRASKA
NATIONAL WEATHER SERVICE OMAHA NE
1200 AM CDT SAT JUN 24 2017

NOTES: SATELLITE DATA IS BEING USED TO AUGMENT CLOUD COVER ABOVE
       12000 FEET.
       "FAIR" INDICATES FEW OR NO CLOUDS BELOW 12,000 FEET WITH NO
       SIGNIFICANT WEATHER AND/OR OBSTRUCTIONS TO VISIBILITY.

  * THESE STATIONS DO NOT REPORT WEATHER SUCH AS RAIN...SNOW OR FOG.

NEZ001>004-019>022-054>056-240600-
NEBRASKA PANHANDLE

CITY           SKY/WX    TMP DP  RH WIND       PRES   REMARKS
SCOTTSBLUFF    CLEAR     54  32  43 N9        30.28R
ALLIANCE       PTCLDY    44  36  73 S5        30.27R
CHADRON        CLEAR     47  37  68 CALM      30.26R
GORDON         FAIR      48  37  65 CALM      30.25S
KIMBALL        PTCLDY    51  39  61 NE5       30.32R
SIDNEY         CLEAR     52  34  50 N8        30.29R
$$

NEZ057>060-069>072-079>082-240600-
SOUTHWEST NEBRASKA

CITY           SKY/WX    TMP DP  RH WIND       PRES   REMARKS
NORTH PLATTE   CLEAR     52  44  74 CALM      30.23R
IMPERIAL       CLEAR     53  41  63 NE6       30.25R
LEXINGTON      CLEAR     54  47  79 NW3       30.20R
MCCOOK         CLEAR     56  45  66 NE6       30.22R
OGALLALA       CLEAR     57  36  45 NE5       30.25R
$$

NEZ005>010-023>029-035>040-094-240600-
NORTH CENTRAL NEBRASKA

CITY           SKY/WX    TMP DP  RH WIND       PRES   REMARKS
VALENTINE      CLEAR     50  32  50 W6        30.21R
AINSWORTH      CLEAR     52  37  55 W6        30.21R
BROKEN BOW     CLEAR     54  40  59 N8        30.20R
O`NEILL        PTCLDY    53  42  65 W3        30.17S
ORD            CLEAR     51  39  63 NW6       30.17R
THEDFORD       CLEAR     53  37  54 CALM      30.24R
$$

NEZ041-046>049-061>064-073>077-083>087-240600-
SOUTH CENTRAL NEBRASKA

CITY           SKY/WX    TMP DP  RH WIND       PRES   REMARKS
GRAND ISLAND   CLEAR     56  46  69 N6        30.17R
AURORA         CLEAR     55  46  72 NW6       30.16R
HASTINGS       CLEAR     58  44  60 NW3       30.18R
HEBRON         PTCLDY    58  51  76 CALM      30.16R
HOLDREGE       CLEAR     57  47  67 NE3       30.19S
KEARNEY *      CLEAR     63  43  48 N3        30.19R
YORK           CLEAR     55  48  76 N3        30.16R
$$

NEZ011>018-030>034-042>045-240600-
NORTHEAST NEBRASKA

CITY           SKY/WX    TMP DP  RH WIND       PRES   REMARKS
NORFOLK        CLEAR     54  39  57 NW9       30.14R
ALBION         CLEAR     51  40  65 NW5       30.17R
BLAIR          CLEAR     60  45  59 NW6       30.10S
FREMONT        CLEAR     55  45  68 W6        30.12R
TEKAMAH        CLEAR     59  44  57 NW7       30.10R
WAYNE          CLEAR     53  42  65 CALM      30.13R
$$

NEZ050>053-065>068-078-088>093-240600-
SOUTHEAST NEBRASKA

CITY           SKY/WX    TMP DP  RH WIND       PRES   REMARKS
LINCOLN        CLEAR     55  51  86 N3        30.14R
OMAHA EPPLEY   CLEAR     61  49  64 N5        30.10R
BEATRICE       CLEAR     58  52  78 CALM      30.13S
FALLS CITY     CLEAR     61  54  77 NW6       30.10R
NEBRASKA CITY  CLEAR     61  54  75 W6        30.11S
PLATTSMOUTH    CLEAR     60  51  70 W6        30.11R
$$

NEZ044-045-051>053-067-240600-
OMAHA AREA

CITY           SKY/WX    TMP DP  RH WIND       PRES   REMARKS
OMAHA EPPLEY   CLEAR     61  49  64 N5        30.10R
BLAIR          CLEAR     60  45  59 NW6       30.10S
FREMONT        CLEAR     55  45  68 W6        30.12R
MILLARD        CLEAR     65  50  57 NW5       30.11R
OFFUTT AFB     CLEAR     57  51  80 NW7       30.10R
PLATTSMOUTH    CLEAR     60  51  70 W6        30.11R
WAHOO          FAIR      60  45  57 NW6       30.12S
$$




USA.gov is the U.S. government's official web portal to all federal, state and local government web resources and services.